Vorticity
2 2 5 7 9 8 3 -0 -0 -0 3 8 10 8 6 5 2 -0 2 8 13 16 17 16 13 11 11 11 11 11 11 11 10 9 9 9 9 10 10 11 11 10 9 7 7 7 7 8 9 8 8 7 6 7 6 6 8 8 9 10 10 10 9 9 11 12 11 10 10 10 9 10 10 8 8 9 10 9 8 8 9 9 8 7 7
8 2 2 4 6 7 3 1 4 3 4 7 7 6 4 -0 -3 -3 3 13 19 17 14 13 12 10 10 10 9 10 10 8 7 7 7 8 9 10 10 10 10 9 8 8 8 7 6 6 5 2 3 4 3 2 2 2 4 5 6 7 8 8 8 8 7 7 7 6 6 6 7 7 9 8 5 5 6 7 7 7 7 3 -1 -2 0
10 1 4 9 10 9 7 4 5 8 10 9 6 6 6 1 -1 3 14 23 22 14 10 9 9 9 7 8 8 7 6 4 5 6 7 9 10 9 9 9 7 6 5 6 8 8 8 7 5 4 6 8 8 6 4 4 5 6 6 5 6 7 8 8 6 5 5 6 6 6 6 5 5 6 6 6 8 11 10 6 1 -4 -5 -2 2
9 1 6 13 12 9 12 13 10 9 9 8 8 8 7 5 5 11 21 23 14 8 8 6 7 6 5 5 5 4 4 5 8 10 10 10 10 11 11 10 7 6 7 8 9 9 9 8 6 4 4 6 7 6 5 3 2 3 3 4 5 6 7 8 7 5 5 5 6 7 7 7 6 4 5 7 7 7 5 0 -3 -3 0 3 4
12 4 1 7 10 5 5 11 14 11 9 10 12 14 12 9 9 14 18 13 6 4 5 4 5 5 4 4 4 3 6 7 9 9 8 8 7 7 7 6 5 7 8 9 9 8 7 5 4 1 1 1 0 1 3 4 5 5 6 7 6 5 7 10 10 8 5 4 4 5 7 9 10 9 8 6 1 -2 -4 -5 -5 -2 0 1 1
16 10 1 5 15 11 -1 -3 6 12 12 11 13 19 20 14 13 18 15 8 4 2 2 2 2 3 6 6 5 4 7 8 7 5 5 4 3 3 2 2 3 5 6 5 4 4 4 4 5 5 6 8 10 9 7 5 5 6 7 9 7 6 9 12 12 10 8 5 4 4 5 7 9 10 9 5 0 -3 -3 -3 -4 -3 -1 -0 -0
19 15 7 9 16 20 12 2 6 14 15 14 12 12 17 17 17 18 12 5 5 3 2 2 2 6 9 6 5 7 8 8 7 5 5 4 3 3 2 2 3 4 6 6 4 4 7 7 5 3 4 6 10 10 4 -1 -0 3 6 8 6 6 8 8 5 4 5 7 8 7 5 6 7 7 7 6 4 2 -1 -3 -4 -3 -2 -2 -1
19 9 11 19 19 25 24 9 7 15 18 20 14 5 9 16 15 12 7 4 5 4 3 3 4 8 11 9 9 12 11 9 7 5 3 2 2 1 1 1 1 2 7 11 11 8 6 4 3 3 4 3 3 4 2 1 4 6 7 7 6 7 8 6 4 4 5 7 10 12 9 7 6 6 6 6 6 6 4 1 -1 -2 -1 -1 -0
8 1 14 19 13 20 23 7 2 8 10 16 16 7 4 7 7 9 8 5 4 4 6 8 7 6 6 7 8 8 7 5 3 2 1 1 2 3 3 3 1 1 5 11 12 7 0 -3 -1 2 3 2 2 3 4 6 7 8 7 6 7 8 8 7 7 7 7 7 10 13 12 9 6 5 4 3 3 4 5 4 3 2 3 3 3
6 3 7 8 12 21 20 10 8 9 7 13 18 13 3 -3 0 9 11 8 7 9 11 15 17 14 7 3 4 4 5 5 4 4 4 3 3 3 3 3 2 2 4 6 6 3 -1 -2 -1 0 2 2 3 4 5 6 8 9 9 8 7 6 6 6 6 8 10 9 10 13 13 10 7 4 5 5 3 3 3 2 2 3 5 7 7
11 6 4 10 19 18 13 16 16 11 11 15 15 12 7 1 4 14 16 14 10 5 3 6 11 14 12 9 8 7 7 9 8 6 5 4 3 2 1 2 2 3 4 4 4 3 3 4 5 4 1 1 5 6 3 3 5 8 10 9 6 5 5 5 6 10 12 11 12 14 14 12 9 7 7 7 6 5 4 5 6 5 5 6 7
0 4 10 16 13 5 12 23 9 -6 5 17 12 9 9 9 14 17 14 13 13 7 3 4 6 8 9 8 7 6 6 5 4 2 1 1 2 2 1 2 3 3 2 2 3 3 3 6 9 7 -0 -3 3 6 3 2 4 6 8 8 6 5 6 7 9 10 10 10 12 12 12 11 12 13 13 12 10 7 5 6 7 5 5 5 7
2 4 4 1 -4 -4 9 16 1 -9 5 16 12 8 10 13 17 18 9 5 10 11 7 6 5 4 4 3 3 3 2 1 -0 0 1 2 3 3 2 2 2 2 2 2 2 2 1 2 6 6 0 -3 2 6 6 5 4 4 6 7 5 5 6 7 9 9 10 11 12 11 10 8 7 8 9 7 5 4 4 5 5 5 6 7 9
6 6 2 -0 1 2 3 2 -1 -0 5 7 5 5 8 7 9 18 15 2 0 6 7 5 3 2 2 1 1 1 2 2 2 2 2 3 3 3 2 2 2 1 2 3 3 3 2 2 4 5 4 3 4 7 7 8 9 12 14 11 6 5 5 4 5 7 6 7 10 13 15 13 8 4 -2 -6 -7 -4 -1 1 3 7 7 8 11
5 5 3 3 4 4 1 0 3 3 3 5 5 3 5 2 2 12 18 14 12 11 5 0 0 1 1 1 1 2 3 4 3 2 3 3 3 2 1 3 3 2 2 2 1 2 4 5 6 6 6 5 6 7 8 11 14 15 12 8 5 3 3 2 2 2 4 8 12 12 13 13 10 2 -5 -8 -5 2 8 10 9 9 7 9 12
7 6 5 4 2 2 3 6 8 5 4 9 8 2 1 3 1 1 4 6 5 -3 -11 -10 -5 -2 1 3 4 3 3 3 2 2 2 2 2 1 0 1 2 2 3 1 -0 0 1 2 3 5 5 6 8 9 9 11 14 10 2 0 1 2 3 2 -3 -3 5 11 11 8 6 6 4 2 1 1 2 6 12 15 13 9 8 9 9
3 4 6 5 6 9 11 11 9 5 2 2 2 -1 1 5 6 5 2 -4 -13 -17 -11 -3 -1 -1 2 5 6 6 6 4 3 3 3 3 3 2 2 2 2 3 5 2 -0 1 3 4 6 6 6 7 8 9 9 10 12 8 3 6 7 7 11 11 4 5 11 10 6 7 9 9 9 9 9 9 5 3 5 6 5 4 5 7 7
1 3 3 2 3 7 6 2 -0 2 3 2 0 2 4 5 6 8 8 5 -1 -1 3 5 2 0 2 4 4 3 3 3 3 4 3 2 1 1 4 7 6 6 6 3 1 3 5 6 5 3 4 6 7 8 8 7 8 10 12 15 13 9 11 11 7 8 10 5 4 8 10 10 12 12 10 9 6 6 6 5 3 4 6 7 7
1 2 1 -0 3 6 6 4 4 6 4 -0 -1 1 2 4 5 7 8 8 7 7 7 7 7 4 3 4 2 -0 0 2 3 4 3 4 6 10 13 14 11 9 7 1 -1 0 1 2 3 3 4 6 7 9 8 7 10 14 13 9 6 6 10 10 5 4 4 1 4 7 5 4 6 8 10 11 10 8 7 6 6 7 7 8 8
7 11 12 11 10 11 11 10 10 10 8 5 4 3 3 5 6 6 6 7 7 8 8 10 12 10 5 3 1 -0 0 1 2 6 9 12 15 18 16 11 9 9 7 3 -0 -1 0 2 3 4 6 8 9 12 11 10 12 14 10 7 7 10 11 6 1 1 2 3 5 4 -0 0 4 5 7 10 12 12 10 9 10 10 9 10 10
16 15 15 14 11 11 13 15 14 13 12 11 9 8 8 8 7 6 6 6 7 7 8 9 13 14 8 2 3 6 8 10 12 14 14 11 7 7 4 1 1 3 3 2 1 0 0 3 4 5 8 10 11 11 10 11 13 12 10 8 7 5 3 2 3 6 6 5 3 1 1 3 4 3 3 8 12 13 12 12 14 13 11 8 4
6 -0 -3 -2 -0 2 7 12 13 12 10 9 10 10 8 7 7 8 9 8 8 9 9 7 9 11 8 7 12 14 14 14 15 13 9 3 -2 -3 -2 -2 -1 0 -1 0 2 3 6 9 12 12 11 10 9 10 10 11 12 12 10 10 11 10 8 8 8 8 6 4 4 6 7 7 5 5 8 12 12 9 8 11 12 10 7 2 -1
-0 1 2 5 9 10 8 7 7 7 8 9 11 10 8 6 7 7 8 7 7 8 8 6 5 7 7 6 5 3 -0 -2 -1 -0 1 1 -0 1 2 2 2 3 5 8 10 12 14 15 14 11 10 11 12 12 13 13 15 16 16 15 15 14 13 14 14 11 9 8 9 10 10 8 6 9 12 13 14 15 15 15 14 13 11 9 10
14 15 15 14 13 13 14 13 12 10 10 10 10 9 9 9 9 8 8 8 7 7 8 6 5 5 3 0 -1 -2 -3 -4 -3 -2 -1 1 3 4 4 6 8 9 9 10 10 12 14 11 8 5 7 11 15 18 20 19 18 16 15 14 16 17 16 16 15 14 13 11 9 7 7 7 10 13 14 14 16 18 17 15 15 16 17 17 16
15 13 11 10 8 8 8 8 8 8 8 8 7 7 7 7 7 7 6 7 7 7 8 8 8 8 8 7 7 7 8 8 8 7 7 8 9 9 9 10 11 12 13 13 14 15 14 12 13 15 17 20 22 22 21 17 13 12 11 12 13 11 8 7 8 11 11 9 9 9 9 12 15 16 16 16 15 14 15 16 19 20 19 18 16
8 6 5 5 6 6 4 3 3 3 2 1 1 1 1 1 1 1 2 3 4 5 6 7 7 8 8 9 9 9 10 10 10 11 11 10 10 11 13 13 14 16 19 19 20 20 19 20 21 19 19 21 20 19 17 15 16 19 19 16 13 11 11 14 14 10 5 4 8 12 12 14 14 13 13 14 13 14 16 17 18 19 18 17 15
6 5 5 5 4 3 3 3 3 3 2 2 2 1 1 0 1 2 3 4 5 6 8 9 9 9 9 8 8 8 8 8 8 8 7 6 5 5 7 13 20 22 19 21 26 26 25 27 25 20 23 25 17 9 10 13 15 15 15 20 24 22 19 15 6 -1 2 8 11 11 12 13 14 14 15 14 13 14 15 15 14 13 11 8 6
4 4 4 3 3 2 2 2 3 3 4 4 5 6 6 6 6 6 6 7 8 9 9 9 9 9 9 9 8 8 8 9 10 11 11 12 11 10 8 13 19 16 8 11 19 20 17 16 11 6 11 15 10 6 13 23 25 19 12 11 9 0 -4 -2 -1 1 10 14 11 9 12 13 12 12 10 9 10 12 12 11 10 6 3 5 9
4 5 5 5 5 5 6 6 6 7 7 8 8 8 8 8 8 9 10 10 10 11 12 13 14 14 15 16 17 17 19 19 18 19 20 21 22 23 20 17 18 15 6 -0 -1 -3 -6 -4 -1 -1 -1 -2 -3 2 15 22 18 12 10 6 -1 -5 -2 4 6 8 12 13 12 14 15 12 9 9 9 9 10 11 9 7 5 5 9 17 23
4 4 4 5 4 4 5 5 6 5 6 6 6 7 8 8 8 10 12 14 14 14 15 17 20 22 24 24 23 23 24 24 23 23 23 23 23 23 22 21 21 21 18 12 8 3 -5 -7 -2 6 15 17 10 8 18 21 8 -0 7 13 10 8 9 13 18 21 19 17 16 17 15 13 12 12 13 13 10 8 8 8 9 13 20 25 26
6 6 6 6 6 6 6 6 6 6 6 5 6 7 10 11 11 11 12 15 18 20 20 19 17 16 17 18 20 21 21 20 20 19 19 20 20 19 20 21 20 20 20 19 17 16 14 11 3 -2 6 15 10 2 5 7 -2 -6 2 7 9 9 9 16 26 25 13 9 14 17 17 16 14 12 12 11 10 9 9 12 15 20 24 25 23
10 11 12 12 12 13 13 13 14 15 16 18 18 18 19 21 23 23 21 18 17 19 23 26 25 22 19 16 16 19 21 22 22 21 20 22 22 22 23 24 24 24 24 23 21 19 21 22 17 6 -0 -2 -3 1 6 4 0 1 -1 -4 3 12 15 17 17 7 -0 7 18 18 14 10 9 9 9 8 8 9 11 14 20 23 23 22 21
18 19 21 22 23 24 24 26 27 27 28 28 28 27 27 26 26 28 31 31 28 23 21 23 26 28 29 26 24 22 22 22 23 22 21 21 21 22 23 22 23 24 24 27 30 29 26 25 23 20 13 3 -0 10 21 20 17 15 9 7 15 22 19 13 5 -1 4 17 19 10 5 5 6 5 5 5 7 10 15 19 22 21 20 19 17
26 27 27 27 27 27 27 27 26 25 25 25 25 26 27 26 26 27 28 30 30 27 23 20 19 19 20 21 20 17 15 15 14 13 13 12 12 13 12 10 11 13 16 22 27 28 31 33 29 26 27 23 17 14 12 12 16 19 15 15 20 22 16 8 2 3 11 16 11 3 1 3 5 5 6 8 10 13 17 20 20 18 18 16 12
25 24 22 21 21 21 22 22 23 24 25 26 27 27 26 26 25 21 16 14 13 14 14 13 13 12 11 10 10 9 8 8 7 5 5 4 3 4 2 1 3 5 7 12 16 19 24 27 28 32 33 26 18 9 -4 -7 2 11 14 18 21 21 19 13 8 10 13 9 6 6 5 5 8 9 8 8 10 13 17 18 17 17 16 12 7
19 19 19 20 21 22 24 25 25 26 25 23 22 20 18 16 13 10 9 9 7 6 8 9 10 10 8 7 6 5 3 3 3 3 5 5 5 6 5 6 11 14 11 7 8 13 18 19 24 33 32 19 13 10 1 -1 10 16 19 26 25 18 16 15 10 10 11 8 7 10 11 10 11 10 6 6 9 14 18 17 16 16 13 8 5
20 21 21 22 23 22 22 22 20 18 17 15 13 12 10 10 9 8 8 9 9 11 12 10 8 6 4 5 7 9 12 16 19 21 24 25 26 28 26 25 28 27 19 12 6 6 12 15 19 28 31 25 15 -1 -14 2 31 34 19 14 15 12 15 19 15 12 11 10 11 11 11 12 11 6 4 7 13 17 19 16 15 15 10 5 4
23 24 23 23 22 20 18 17 15 14 13 12 11 11 11 11 11 11 12 13 13 11 7 6 9 13 16 22 27 31 35 36 35 36 38 38 41 44 42 40 41 37 26 16 9 7 9 11 13 19 27 35 31 7 -15 -3 23 23 10 11 18 21 22 18 12 11 10 7 6 8 8 10 9 4 6 14 19 18 16 14 14 13 8 4 5
20 20 19 17 16 15 14 14 13 13 13 12 13 13 13 13 13 14 15 12 9 9 13 20 26 30 37 47 55 59 61 58 50 46 42 36 32 32 32 34 39 41 33 20 10 6 6 7 11 14 18 30 39 27 7 5 11 9 11 19 16 10 12 12 7 8 10 5 5 9 10 10 10 11 15 19 18 15 13 14 14 11 5 4 7
14 14 14 14 15 15 15 15 15 15 14 14 14 14 14 16 16 15 12 10 14 23 30 30 30 35 43 48 49 48 50 53 52 47 42 38 32 26 28 36 40 39 33 22 13 11 9 7 12 17 20 30 40 26 4 4 12 9 9 12 1 -7 3 12 7 5 6 5 7 12 13 12 13 16 18 17 13 11 14 15 12 8 4 4 8
11 13 15 16 17 17 17 16 16 16 15 15 15 16 16 17 15 13 14 20 28 31 26 21 25 33 31 22 17 15 19 35 50 44 32 33 35 32 36 47 47 38 29 20 13 16 17 13 17 22 20 27 42 35 13 8 14 7 2 4 1 -5 2 8 4 0 1 3 7 12 11 10 13 16 17 15 11 11 14 14 10 6 5 5 7
13 14 15 14 13 13 14 13 14 14 16 17 17 16 15 14 13 15 21 26 27 24 19 18 25 27 15 2 4 5 0 14 39 41 23 13 12 12 23 40 42 30 23 16 11 14 16 14 21 29 20 12 21 23 10 -2 -6 -11 -6 5 7 1 -0 1 -2 -3 -1 6 13 14 8 7 14 19 18 14 12 12 13 12 8 5 5 6 6
13 12 11 10 10 11 11 11 12 12 13 15 16 16 14 12 13 16 23 26 22 18 17 17 19 20 12 2 2 2 -8 -8 10 22 20 16 14 11 16 28 30 24 20 17 14 14 12 6 9 20 23 19 16 14 13 11 3 -8 -11 -10 -15 -18 -12 -4 0 3 8 14 17 10 2 5 16 22 18 13 12 13 13 10 6 4 5 6 5
12 10 9 9 10 11 11 12 13 12 11 12 15 16 14 12 11 13 20 27 27 21 16 12 12 16 17 11 6 8 8 6 6 7 6 13 25 31 29 23 18 16 17 15 12 12 12 8 5 6 12 17 15 11 15 23 24 17 10 1 -7 -5 7 16 17 16 17 16 11 4 4 13 22 23 17 12 11 12 11 8 5 4 5 6 6
9 8 10 11 11 11 12 12 11 11 10 10 13 15 14 13 11 9 10 19 26 27 23 19 14 11 12 14 15 17 18 18 20 21 16 10 11 21 28 23 14 10 9 7 5 7 8 7 5 0 -1 1 4 4 6 9 14 22 27 25 22 24 26 21 14 13 13 10 6 7 15 23 24 20 14 11 10 12 10 7 5 5 5 6 6
9 10 11 11 10 10 10 9 8 8 8 8 9 11 13 13 13 10 6 6 12 19 23 25 25 19 12 10 13 14 12 11 12 18 24 24 17 13 15 16 15 13 9 6 8 14 19 20 20 18 14 9 3 1 4 7 13 20 24 23 24 26 21 13 10 11 9 6 8 16 26 28 22 15 11 10 10 11 10 6 5 5 5 5 6
10 11 10 9 9 9 10 9 7 6 7 7 7 8 10 10 11 13 12 7 4 7 12 17 23 25 22 18 15 13 13 14 14 11 15 26 33 31 23 16 13 12 9 7 12 19 23 24 24 22 19 14 8 6 11 19 23 21 17 16 18 18 13 10 11 10 7 9 17 25 27 23 15 10 9 10 10 11 10 7 5 5 6 6 7
9 10 9 7 7 8 8 8 7 6 6 7 7 7 8 10 10 12 14 13 9 8 7 7 10 14 14 16 18 16 13 15 22 26 23 20 22 29 34 34 27 15 7 10 18 18 10 8 11 12 8 7 8 12 18 23 21 16 13 13 14 13 11 11 11 12 14 19 24 24 21 16 11 9 10 11 12 12 10 7 6 5 6 7 8
8 8 8 6 6 8 8 7 7 7 7 7 8 8 8 8 9 10 13 15 16 14 11 8 7 7 7 8 12 15 14 9 11 23 32 25 8 3 17 37 45 33 15 9 13 9 -1 -3 4 9 9 10 11 12 13 14 13 11 11 11 10 11 12 13 15 18 21 23 21 19 15 11 9 9 10 12 13 12 10 8 7 7 6 7 9
7 8 7 6 7 9 9 8 8 9 9 9 10 10 8 7 6 6 7 9 12 16 18 17 12 9 8 8 7 9 13 13 9 12 27 33 21 2 -0 19 40 43 28 14 12 12 7 4 5 8 12 16 16 12 9 9 10 9 8 7 7 9 11 14 19 22 22 19 16 13 11 10 10 11 12 13 13 12 11 10 9 8 7 7 9
8 7 7 7 8 9 9 9 9 10 10 10 10 11 10 9 8 6 5 5 5 7 12 18 20 16 12 10 7 3 5 10 12 10 17 30 35 22 4 3 20 33 26 15 15 19 17 12 14 18 21 18 13 8 6 7 9 8 6 6 7 9 12 17 21 20 17 14 12 11 10 11 12 12 12 13 13 13 12 11 10 8 8 8 8
Height
5750 5750 5750 5750 5750 5751 5752 5754 5755 5756 5757 5758 5757 5756 5756 5758 5760 5761 5761 5762 5762 5762 5763 5764 5765 5766 5767 5768 5768 5769 5770 5770 5771 5771 5772 5772 5772 5772 5773 5773 5774 5774 5773 5773 5773 5773 5774 5774 5774 5774 5775 5775 5774 5774 5774 5775 5775 5775 5775 5775 5775 5774 5774 5773 5773 5772 5771 5771 5770 5770 5770 5769 5769 5768 5768 5767 5767 5766 5766 5766 5765 5765 5765 5764 5764
5746 5746 5747 5747 5747 5748 5749 5751 5752 5754 5755 5756 5755 5754 5755 5757 5758 5759 5759 5759 5759 5760 5761 5762 5763 5764 5765 5766 5766 5767 5767 5768 5769 5769 5770 5770 5770 5770 5771 5771 5772 5771 5771 5771 5771 5772 5772 5772 5772 5772 5772 5772 5772 5772 5772 5772 5772 5772 5772 5772 5772 5772 5772 5771 5771 5770 5769 5769 5769 5768 5768 5768 5767 5766 5766 5766 5765 5764 5764 5764 5763 5763 5763 5762 5762
5744 5744 5745 5745 5744 5745 5747 5750 5752 5753 5754 5755 5754 5753 5754 5756 5757 5757 5757 5757 5757 5758 5759 5760 5761 5762 5763 5764 5764 5765 5765 5766 5767 5767 5768 5768 5768 5769 5769 5769 5769 5769 5769 5769 5769 5770 5770 5770 5770 5770 5770 5770 5770 5770 5770 5770 5770 5770 5770 5770 5770 5770 5769 5769 5769 5768 5768 5767 5767 5766 5766 5765 5765 5764 5764 5763 5763 5762 5762 5762 5761 5761 5760 5760 5759
5745 5746 5746 5746 5746 5746 5748 5750 5750 5751 5752 5752 5751 5751 5752 5753 5754 5755 5755 5755 5756 5756 5757 5758 5759 5760 5761 5762 5762 5763 5764 5764 5765 5766 5766 5767 5767 5768 5768 5767 5767 5766 5767 5767 5768 5768 5768 5769 5769 5769 5769 5769 5768 5768 5768 5767 5767 5767 5767 5767 5767 5767 5767 5767 5766 5766 5766 5765 5764 5764 5763 5763 5762 5762 5762 5761 5760 5760 5759 5759 5759 5758 5757 5756 5755
5744 5745 5746 5746 5745 5745 5746 5747 5748 5748 5749 5748 5747 5748 5749 5750 5751 5751 5752 5752 5753 5754 5755 5756 5757 5758 5759 5759 5760 5761 5762 5763 5763 5763 5764 5764 5765 5765 5765 5764 5764 5764 5765 5766 5766 5766 5766 5766 5767 5767 5767 5766 5766 5766 5766 5766 5765 5764 5764 5763 5764 5764 5763 5763 5763 5763 5763 5763 5762 5761 5760 5760 5759 5759 5758 5758 5757 5757 5756 5756 5756 5755 5754 5754 5753
5741 5742 5743 5742 5742 5743 5744 5745 5745 5745 5746 5746 5746 5746 5747 5747 5748 5748 5749 5750 5750 5751 5752 5753 5754 5755 5756 5757 5758 5759 5760 5760 5761 5761 5761 5762 5762 5763 5762 5762 5762 5762 5763 5763 5763 5763 5763 5763 5764 5764 5764 5764 5763 5763 5763 5763 5763 5762 5761 5760 5760 5760 5760 5760 5759 5759 5760 5760 5760 5759 5758 5757 5756 5755 5755 5754 5754 5753 5753 5752 5752 5752 5751 5750 5750
5738 5739 5740 5740 5740 5740 5741 5743 5743 5743 5743 5744 5744 5745 5745 5746 5746 5746 5747 5748 5749 5749 5750 5751 5752 5753 5754 5754 5755 5757 5757 5758 5758 5759 5759 5760 5760 5760 5760 5760 5760 5760 5761 5761 5760 5760 5760 5760 5760 5760 5760 5760 5760 5760 5759 5759 5759 5759 5758 5757 5757 5757 5757 5757 5756 5756 5755 5755 5755 5755 5755 5754 5753 5752 5751 5750 5749 5749 5749 5748 5748 5747 5747 5746 5746
5736 5737 5738 5738 5738 5739 5739 5740 5741 5741 5742 5742 5743 5744 5744 5745 5745 5745 5746 5746 5747 5747 5748 5749 5750 5751 5751 5752 5752 5754 5755 5755 5756 5756 5757 5757 5757 5757 5757 5757 5758 5758 5758 5758 5758 5758 5758 5757 5757 5757 5756 5756 5756 5756 5755 5755 5754 5754 5754 5754 5753 5753 5753 5753 5753 5752 5752 5751 5751 5750 5750 5750 5750 5749 5748 5746 5745 5745 5744 5744 5744 5743 5742 5741 5741
5735 5736 5736 5736 5737 5737 5737 5738 5738 5739 5740 5741 5741 5742 5743 5743 5744 5744 5744 5744 5745 5745 5746 5746 5747 5748 5748 5749 5749 5751 5752 5752 5753 5753 5754 5754 5754 5754 5754 5754 5755 5755 5756 5756 5756 5756 5756 5755 5755 5754 5753 5753 5753 5752 5752 5751 5751 5750 5750 5750 5749 5749 5749 5749 5749 5748 5748 5748 5747 5746 5746 5746 5745 5745 5744 5743 5743 5742 5741 5740 5739 5738 5737 5736 5736
5733 5734 5734 5735 5735 5735 5735 5736 5737 5738 5739 5740 5740 5740 5741 5741 5742 5742 5742 5742 5743 5743 5743 5744 5744 5744 5745 5745 5746 5747 5748 5749 5750 5750 5750 5751 5751 5751 5751 5751 5751 5752 5752 5753 5753 5753 5752 5752 5751 5751 5750 5750 5749 5749 5748 5748 5747 5747 5746 5746 5745 5745 5745 5744 5744 5744 5744 5743 5743 5742 5742 5741 5741 5740 5740 5739 5739 5738 5737 5736 5735 5734 5733 5732 5731
5731 5732 5733 5733 5734 5734 5734 5735 5735 5736 5737 5738 5738 5739 5739 5739 5739 5739 5739 5739 5740 5740 5741 5741 5741 5741 5742 5742 5743 5744 5745 5745 5746 5746 5747 5747 5747 5747 5747 5748 5748 5749 5749 5749 5749 5749 5748 5748 5747 5747 5746 5746 5745 5745 5744 5744 5743 5743 5742 5742 5741 5741 5741 5740 5740 5739 5739 5739 5738 5738 5737 5736 5736 5736 5735 5734 5734 5733 5732 5731 5731 5729 5728 5727 5725
5729 5730 5731 5731 5732 5732 5733 5734 5734 5734 5735 5735 5736 5736 5736 5736 5736 5736 5736 5737 5737 5738 5738 5738 5738 5738 5739 5739 5740 5740 5741 5742 5742 5743 5743 5743 5744 5744 5744 5744 5744 5745 5745 5745 5745 5745 5744 5743 5743 5743 5742 5742 5741 5741 5740 5739 5739 5738 5738 5737 5737 5736 5736 5735 5735 5734 5734 5734 5733 5733 5733 5732 5732 5731 5731 5730 5729 5728 5727 5726 5725 5724 5723 5722 5720
5725 5726 5727 5728 5729 5729 5731 5732 5732 5732 5732 5733 5733 5733 5733 5733 5733 5733 5734 5735 5735 5735 5736 5736 5736 5735 5736 5736 5736 5737 5737 5738 5738 5739 5739 5739 5740 5740 5740 5740 5741 5741 5741 5740 5740 5740 5739 5739 5738 5738 5738 5737 5736 5736 5736 5735 5734 5733 5732 5732 5732 5731 5731 5730 5729 5729 5729 5729 5728 5728 5728 5727 5727 5727 5726 5726 5725 5724 5723 5722 5720 5719 5717 5716 5715
5721 5722 5723 5724 5725 5726 5727 5728 5728 5729 5729 5730 5730 5730 5731 5731 5731 5731 5731 5732 5732 5732 5733 5733 5733 5732 5732 5733 5733 5733 5734 5734 5735 5735 5735 5735 5735 5735 5736 5736 5735 5735 5735 5735 5735 5734 5734 5733 5733 5733 5733 5732 5732 5732 5731 5731 5729 5728 5727 5727 5727 5726 5725 5724 5724 5724 5723 5723 5723 5723 5722 5722 5721 5721 5721 5720 5720 5719 5718 5717 5715 5714 5712 5711 5710
5718 5719 5720 5720 5721 5722 5722 5723 5723 5724 5725 5725 5726 5727 5727 5728 5729 5729 5729 5728 5728 5728 5729 5729 5729 5729 5729 5729 5729 5729 5730 5731 5731 5731 5731 5731 5731 5731 5731 5730 5730 5730 5730 5729 5729 5728 5728 5728 5728 5728 5728 5727 5727 5727 5727 5726 5725 5722 5721 5722 5721 5721 5720 5719 5718 5718 5717 5717 5717 5716 5716 5716 5715 5715 5714 5714 5713 5713 5712 5711 5709 5708 5707 5705 5703
5714 5715 5716 5717 5717 5717 5717 5718 5719 5720 5720 5721 5721 5722 5723 5724 5725 5725 5725 5724 5724 5724 5725 5726 5726 5726 5726 5726 5725 5725 5725 5726 5727 5726 5726 5726 5726 5726 5726 5725 5725 5725 5724 5724 5723 5723 5722 5722 5722 5722 5722 5722 5722 5722 5722 5722 5720 5718 5717 5716 5715 5715 5714 5713 5713 5712 5712 5711 5711 5710 5710 5709 5709 5708 5708 5707 5706 5705 5704 5704 5703 5702 5700 5698 5697
5709 5710 5711 5712 5713 5713 5713 5714 5716 5716 5716 5717 5717 5718 5718 5719 5720 5720 5720 5720 5720 5721 5722 5722 5722 5722 5722 5722 5722 5721 5721 5721 5722 5721 5721 5721 5721 5721 5721 5721 5720 5720 5720 5719 5718 5718 5717 5717 5716 5716 5716 5716 5716 5716 5716 5716 5715 5714 5712 5711 5710 5709 5708 5708 5707 5706 5706 5705 5705 5704 5704 5703 5702 5702 5701 5700 5699 5698 5697 5696 5695 5694 5693 5691 5690
5705 5705 5705 5706 5707 5709 5709 5710 5711 5711 5712 5712 5713 5714 5714 5715 5715 5715 5715 5715 5715 5716 5716 5717 5717 5717 5717 5717 5717 5717 5716 5716 5716 5715 5715 5715 5715 5715 5715 5715 5716 5715 5715 5715 5714 5713 5712 5711 5711 5711 5710 5710 5710 5709 5710 5710 5710 5709 5707 5705 5705 5703 5702 5702 5702 5701 5700 5699 5698 5698 5697 5697 5696 5695 5694 5693 5693 5692 5691 5690 5688 5687 5686 5685 5684
5700 5701 5701 5701 5702 5703 5704 5704 5705 5706 5706 5707 5708 5708 5709 5710 5710 5711 5711 5710 5710 5710 5710 5710 5710 5710 5711 5710 5711 5710 5710 5709 5709 5708 5708 5708 5708 5708 5708 5709 5710 5710 5710 5710 5709 5708 5706 5705 5705 5704 5704 5703 5703 5702 5703 5704 5705 5704 5702 5700 5699 5698 5696 5696 5695 5694 5693 5692 5692 5691 5690 5690 5689 5688 5687 5686 5686 5685 5684 5683 5681 5680 5680 5679 5677
5695 5695 5696 5696 5696 5696 5697 5697 5698 5698 5699 5700 5700 5701 5702 5702 5703 5703 5704 5704 5704 5704 5704 5704 5704 5703 5703 5703 5703 5703 5703 5703 5702 5702 5701 5701 5701 5701 5702 5703 5704 5704 5704 5704 5704 5702 5700 5699 5698 5697 5696 5696 5696 5696 5695 5696 5696 5696 5695 5693 5692 5691 5690 5689 5688 5687 5686 5685 5685 5684 5683 5683 5682 5681 5680 5679 5679 5678 5676 5675 5674 5673 5673 5671 5670
5690 5690 5690 5691 5691 5691 5691 5691 5691 5691 5692 5692 5692 5693 5693 5694 5694 5695 5695 5696 5696 5696 5696 5696 5696 5696 5696 5696 5696 5696 5696 5696 5696 5695 5695 5694 5694 5695 5696 5696 5697 5697 5698 5698 5697 5696 5694 5692 5690 5689 5689 5688 5688 5689 5688 5688 5687 5687 5686 5685 5684 5684 5683 5682 5681 5680 5679 5678 5677 5677 5676 5675 5675 5674 5673 5672 5671 5670 5669 5668 5667 5666 5665 5664 5662
5685 5685 5685 5686 5686 5686 5686 5686 5686 5686 5686 5686 5686 5686 5686 5686 5686 5686 5686 5687 5687 5687 5687 5687 5688 5689 5689 5689 5689 5690 5690 5689 5689 5689 5688 5688 5687 5687 5688 5688 5688 5689 5690 5690 5689 5688 5686 5684 5683 5682 5681 5681 5681 5681 5680 5680 5680 5679 5677 5676 5676 5675 5675 5674 5673 5672 5671 5670 5670 5669 5669 5668 5667 5667 5665 5664 5663 5662 5662 5661 5660 5659 5658 5656 5655
5679 5679 5679 5679 5680 5680 5680 5680 5680 5680 5680 5680 5680 5680 5679 5679 5679 5679 5679 5679 5679 5680 5679 5680 5680 5681 5681 5681 5682 5683 5683 5683 5682 5682 5681 5680 5679 5679 5678 5678 5678 5679 5680 5680 5679 5678 5677 5675 5675 5674 5673 5673 5673 5672 5671 5671 5671 5671 5669 5668 5667 5667 5667 5666 5665 5665 5664 5663 5663 5662 5662 5661 5660 5659 5658 5657 5656 5655 5655 5654 5652 5651 5650 5649 5648
5673 5673 5673 5673 5673 5673 5674 5674 5674 5674 5674 5674 5674 5673 5673 5673 5673 5672 5672 5673 5673 5672 5672 5672 5672 5672 5673 5673 5673 5674 5674 5674 5674 5674 5673 5672 5670 5670 5669 5668 5668 5669 5670 5670 5669 5668 5667 5667 5667 5666 5665 5664 5664 5663 5663 5663 5663 5662 5661 5660 5660 5659 5659 5659 5658 5657 5657 5656 5656 5656 5655 5655 5654 5652 5651 5650 5650 5649 5647 5646 5645 5644 5643 5642 5640
5666 5666 5666 5667 5667 5667 5667 5667 5667 5667 5667 5667 5667 5666 5666 5666 5666 5665 5665 5665 5665 5665 5665 5664 5664 5664 5664 5664 5663 5663 5664 5664 5664 5664 5664 5663 5662 5661 5660 5659 5659 5660 5661 5661 5659 5658 5658 5658 5657 5657 5656 5655 5655 5655 5654 5654 5655 5654 5654 5654 5653 5653 5652 5652 5652 5651 5651 5650 5650 5649 5649 5648 5647 5646 5645 5644 5643 5642 5641 5640 5639 5638 5636 5635 5633
5660 5660 5660 5660 5660 5660 5660 5660 5660 5660 5660 5660 5660 5659 5659 5659 5658 5658 5657 5657 5656 5656 5656 5656 5655 5655 5654 5654 5653 5653 5652 5653 5653 5652 5652 5652 5652 5651 5650 5649 5649 5650 5651 5652 5651 5649 5649 5649 5649 5650 5650 5648 5646 5646 5647 5647 5647 5647 5647 5647 5647 5646 5646 5646 5646 5646 5645 5644 5644 5643 5642 5642 5641 5640 5639 5638 5637 5636 5635 5634 5633 5631 5630 5629 5626
5653 5653 5654 5654 5654 5653 5653 5653 5653 5653 5652 5652 5652 5651 5651 5651 5650 5649 5648 5647 5647 5646 5646 5645 5645 5644 5644 5643 5643 5642 5641 5640 5640 5640 5640 5640 5640 5640 5640 5640 5640 5640 5641 5643 5644 5643 5641 5640 5640 5642 5644 5641 5638 5639 5640 5640 5640 5640 5640 5640 5639 5639 5640 5640 5641 5640 5639 5639 5638 5637 5636 5636 5635 5634 5633 5632 5631 5630 5629 5628 5626 5625 5623 5622 5620
5647 5647 5647 5646 5646 5646 5646 5645 5645 5645 5644 5644 5643 5642 5642 5641 5641 5640 5639 5638 5637 5636 5635 5635 5634 5633 5633 5632 5632 5632 5631 5629 5628 5628 5628 5628 5629 5630 5630 5631 5632 5634 5635 5636 5637 5638 5636 5632 5631 5633 5634 5634 5633 5634 5632 5632 5632 5633 5633 5633 5633 5634 5635 5635 5635 5635 5634 5633 5633 5632 5631 5630 5629 5628 5627 5626 5626 5625 5623 5622 5620 5618 5617 5615 5612
5640 5640 5640 5640 5639 5639 5639 5638 5638 5637 5636 5635 5634 5633 5633 5632 5631 5630 5629 5628 5627 5626 5625 5624 5623 5622 5622 5621 5621 5621 5620 5619 5617 5616 5617 5617 5617 5618 5620 5621 5623 5626 5626 5625 5625 5627 5628 5625 5625 5626 5626 5627 5628 5628 5626 5624 5624 5624 5624 5626 5627 5628 5629 5629 5629 5629 5629 5628 5627 5626 5625 5624 5623 5622 5622 5621 5620 5619 5618 5616 5615 5612 5610 5607 5604
5633 5633 5632 5632 5632 5631 5631 5630 5630 5629 5628 5627 5625 5624 5622 5622 5621 5619 5618 5616 5615 5615 5614 5613 5611 5610 5609 5609 5608 5609 5609 5607 5606 5605 5605 5606 5606 5606 5608 5609 5611 5612 5614 5614 5614 5615 5617 5617 5618 5619 5620 5621 5623 5624 5622 5619 5617 5616 5617 5619 5621 5622 5622 5621 5622 5623 5623 5622 5622 5621 5620 5619 5618 5617 5617 5616 5615 5614 5612 5610 5608 5606 5603 5600 5597
5625 5625 5624 5624 5623 5623 5622 5621 5620 5619 5618 5617 5616 5614 5612 5610 5610 5609 5608 5605 5603 5602 5602 5601 5600 5599 5598 5597 5597 5596 5597 5597 5596 5594 5594 5595 5596 5596 5596 5597 5598 5599 5601 5602 5603 5604 5606 5608 5609 5611 5612 5614 5616 5616 5615 5613 5612 5611 5612 5614 5616 5616 5615 5615 5615 5616 5617 5617 5617 5616 5615 5614 5613 5612 5612 5611 5610 5608 5607 5604 5602 5600 5597 5595 5592
5617 5617 5616 5616 5615 5615 5614 5613 5612 5611 5610 5609 5608 5606 5604 5601 5600 5599 5599 5598 5595 5593 5591 5590 5590 5590 5590 5589 5588 5587 5586 5586 5586 5586 5585 5585 5586 5587 5586 5586 5587 5588 5589 5591 5593 5595 5597 5599 5600 5602 5604 5606 5607 5608 5607 5607 5607 5607 5607 5609 5610 5610 5609 5609 5610 5610 5611 5611 5611 5611 5610 5609 5609 5608 5608 5607 5605 5604 5602 5600 5597 5595 5592 5590 5588
5609 5609 5608 5607 5607 5606 5606 5605 5604 5603 5602 5601 5600 5598 5597 5595 5592 5590 5589 5589 5588 5586 5584 5583 5582 5582 5582 5581 5580 5579 5578 5577 5577 5577 5577 5576 5577 5578 5578 5577 5578 5578 5580 5582 5584 5585 5587 5589 5591 5592 5595 5598 5600 5601 5600 5600 5600 5600 5602 5603 5604 5603 5603 5604 5604 5605 5606 5606 5606 5606 5606 5605 5604 5604 5603 5602 5601 5599 5597 5595 5593 5590 5588 5586 5585
5602 5602 5601 5600 5599 5599 5598 5597 5596 5595 5594 5593 5592 5591 5590 5588 5587 5584 5582 5581 5579 5578 5577 5576 5576 5576 5575 5573 5572 5572 5571 5571 5570 5569 5568 5568 5569 5570 5570 5570 5571 5572 5574 5575 5576 5577 5579 5581 5582 5584 5587 5590 5592 5593 5593 5593 5594 5595 5596 5598 5598 5598 5598 5598 5599 5600 5601 5601 5602 5602 5602 5601 5600 5599 5599 5598 5597 5595 5593 5591 5588 5586 5585 5583 5582
5596 5595 5594 5594 5593 5592 5592 5591 5590 5589 5587 5586 5585 5584 5583 5582 5581 5580 5578 5577 5575 5573 5570 5569 5568 5568 5568 5567 5565 5563 5563 5562 5562 5561 5559 5559 5560 5561 5562 5564 5565 5566 5567 5569 5570 5570 5571 5573 5574 5576 5579 5582 5584 5586 5587 5588 5588 5589 5590 5592 5592 5592 5593 5594 5595 5595 5596 5597 5597 5598 5598 5597 5596 5595 5594 5593 5592 5590 5588 5587 5585 5583 5582 5580 5579
5590 5589 5588 5588 5587 5586 5586 5585 5584 5583 5582 5581 5580 5579 5578 5577 5576 5575 5573 5572 5571 5569 5566 5564 5562 5561 5560 5559 5557 5554 5553 5552 5551 5550 5549 5549 5550 5551 5553 5555 5557 5558 5559 5561 5563 5564 5565 5566 5567 5569 5572 5575 5578 5580 5581 5582 5582 5582 5584 5585 5586 5587 5588 5589 5590 5590 5591 5592 5593 5594 5593 5592 5591 5591 5590 5589 5588 5586 5584 5583 5582 5580 5579 5578 5577
5584 5584 5583 5582 5582 5581 5580 5580 5579 5578 5577 5577 5575 5574 5574 5572 5571 5570 5568 5567 5565 5563 5561 5558 5555 5553 5551 5550 5547 5544 5542 5540 5539 5538 5537 5538 5539 5540 5541 5543 5546 5549 5551 5553 5556 5558 5559 5560 5561 5564 5566 5569 5572 5574 5575 5576 5576 5577 5578 5580 5581 5582 5583 5584 5584 5586 5587 5589 5589 5589 5588 5588 5587 5587 5586 5585 5584 5582 5581 5579 5578 5577 5577 5576 5574
5580 5579 5579 5578 5578 5577 5576 5576 5575 5574 5573 5572 5571 5570 5569 5567 5566 5565 5563 5561 5559 5557 5554 5551 5548 5545 5542 5539 5536 5533 5530 5527 5526 5526 5526 5526 5528 5529 5531 5532 5535 5539 5542 5545 5548 5552 5553 5555 5557 5559 5561 5563 5566 5569 5570 5571 5571 5572 5573 5574 5575 5576 5578 5579 5580 5582 5583 5584 5584 5584 5584 5584 5583 5582 5582 5581 5580 5578 5577 5576 5575 5575 5574 5573 5572
5576 5576 5575 5574 5574 5573 5573 5572 5571 5570 5569 5568 5567 5565 5564 5563 5562 5560 5558 5556 5554 5551 5548 5544 5541 5538 5534 5530 5526 5523 5519 5517 5516 5516 5517 5518 5519 5521 5522 5524 5527 5530 5534 5538 5542 5546 5548 5550 5552 5554 5556 5558 5560 5563 5565 5566 5566 5567 5568 5569 5570 5573 5574 5575 5577 5578 5579 5579 5580 5580 5580 5580 5579 5578 5578 5577 5576 5575 5574 5573 5573 5572 5572 5571 5570
5573 5573 5572 5572 5571 5570 5569 5569 5568 5567 5565 5564 5563 5562 5560 5559 5558 5556 5554 5552 5549 5545 5542 5538 5535 5532 5528 5524 5521 5518 5515 5513 5512 5512 5512 5513 5514 5516 5517 5518 5521 5524 5528 5533 5537 5540 5542 5545 5547 5549 5550 5552 5553 5556 5559 5562 5562 5563 5564 5565 5567 5570 5571 5572 5573 5573 5574 5575 5576 5576 5576 5576 5575 5574 5574 5573 5572 5571 5571 5570 5570 5570 5569 5568 5567
5571 5570 5570 5569 5568 5567 5567 5566 5565 5563 5562 5561 5560 5558 5557 5556 5554 5552 5550 5547 5544 5540 5537 5534 5532 5529 5526 5523 5520 5518 5515 5512 5511 5510 5511 5511 5512 5512 5513 5514 5516 5519 5523 5528 5532 5535 5538 5541 5543 5544 5546 5548 5549 5552 5555 5558 5558 5559 5561 5563 5565 5566 5567 5568 5569 5569 5570 5571 5572 5572 5572 5572 5571 5571 5570 5569 5568 5568 5568 5567 5568 5567 5567 5566 5565
5569 5568 5567 5567 5566 5565 5564 5563 5562 5561 5560 5559 5557 5556 5554 5553 5551 5549 5546 5543 5540 5537 5534 5532 5529 5527 5525 5523 5520 5518 5516 5514 5512 5511 5511 5511 5511 5511 5511 5512 5514 5517 5521 5525 5529 5532 5535 5537 5539 5541 5543 5545 5547 5549 5551 5552 5553 5555 5557 5559 5561 5562 5563 5564 5565 5566 5567 5567 5568 5568 5568 5568 5567 5567 5566 5566 5565 5565 5565 5565 5565 5565 5564 5564 5562
5566 5566 5565 5565 5564 5563 5562 5562 5560 5559 5558 5557 5555 5553 5552 5550 5548 5546 5543 5540 5537 5534 5532 5530 5528 5526 5524 5522 5521 5519 5518 5516 5515 5514 5513 5513 5512 5512 5512 5513 5515 5518 5521 5524 5527 5529 5532 5534 5536 5538 5540 5541 5542 5543 5545 5547 5549 5551 5553 5555 5557 5558 5559 5561 5562 5562 5562 5563 5564 5564 5564 5564 5563 5562 5562 5562 5562 5562 5562 5562 5562 5562 5562 5561 5560
5564 5564 5563 5563 5562 5562 5561 5560 5559 5557 5556 5555 5553 5551 5550 5548 5546 5543 5541 5538 5535 5533 5531 5529 5527 5525 5523 5522 5521 5519 5518 5517 5516 5515 5515 5514 5514 5513 5513 5514 5516 5518 5520 5523 5525 5527 5529 5531 5533 5535 5536 5537 5538 5539 5541 5544 5546 5547 5549 5551 5552 5554 5555 5556 5557 5557 5558 5558 5559 5560 5560 5559 5558 5558 5558 5558 5559 5559 5559 5560 5560 5560 5559 5559 5558
5562 5562 5561 5561 5560 5560 5559 5558 5557 5556 5554 5553 5551 5550 5548 5546 5544 5542 5539 5537 5534 5532 5530 5528 5526 5525 5523 5522 5520 5519 5518 5516 5515 5515 5514 5514 5514 5514 5514 5515 5516 5518 5519 5521 5523 5525 5527 5528 5530 5531 5532 5534 5535 5537 5539 5541 5542 5544 5545 5546 5548 5549 5551 5552 5553 5553 5554 5554 5555 5555 5555 5554 5554 5554 5555 5555 5556 5556 5557 5557 5557 5557 5557 5556 5555
5560 5560 5560 5559 5558 5558 5557 5556 5555 5554 5552 5551 5550 5548 5546 5544 5542 5540 5538 5536 5534 5532 5530 5528 5526 5524 5523 5521 5520 5519 5517 5516 5515 5514 5513 5513 5513 5514 5514 5515 5516 5517 5518 5519 5521 5522 5524 5525 5526 5528 5530 5532 5534 5536 5537 5538 5540 5540 5541 5542 5544 5546 5547 5548 5549 5550 5550 5551 5551 5551 5550 5550 5550 5551 5552 5552 5553 5554 5554 5554 5554 5554 5554 5554 5553
5558 5558 5558 5557 5556 5556 5555 5554 5553 5552 5551 5549 5548 5546 5545 5543 5541 5539 5537 5535 5533 5531 5530 5528 5526 5524 5522 5521 5520 5519 5517 5515 5514 5513 5512 5511 5511 5511 5512 5513 5514 5515 5516 5518 5519 5520 5521 5522 5524 5526 5528 5530 5533 5534 5535 5536 5537 5538 5539 5540 5541 5543 5544 5545 5546 5546 5547 5547 5547 5546 5546 5547 5547 5548 5549 5549 5550 5551 5551 5552 5552 5552 5551 5551 5551
5556 5556 5555 5555 5554 5554 5553 5552 5551 5550 5549 5548 5546 5545 5543 5542 5540 5538 5537 5535 5533 5531 5530 5528 5526 5524 5523 5521 5520 5518 5517 5515 5514 5512 5511 5510 5510 5510 5510 5511 5512 5513 5514 5516 5517 5518 5519 5521 5523 5525 5527 5529 5530 5532 5533 5534 5535 5536 5537 5538 5539 5541 5542 5542 5542 5543 5543 5543 5543 5543 5543 5544 5545 5545 5546 5547 5547 5548 5549 5549 5549 5549 5549 5549 5548
5554 5554 5553 5553 5552 5552 5551 5550 5549 5548 5547 5546 5545 5543 5542 5540 5539 5537 5535 5534 5532 5530 5529 5527 5526 5524 5523 5521 5519 5518 5516 5515 5514 5512 5511 5510 5510 5510 5510 5509 5510 5511 5513 5514 5516 5517 5519 5521 5522 5524 5526 5527 5528 5530 5531 5532 5533 5534 5535 5536 5537 5538 5538 5539 5539 5539 5539 5539 5539 5540 5541 5541 5542 5543 5544 5544 5545 5545 5546 5546 5546 5547 5546 5546 5546
5552 5552 5551 5551 5550 5550 5549 5548 5547 5546 5545 5544 5543 5542 5541 5539 5538 5536 5534 5533 5531 5529 5528 5526 5525 5523 5522 5521 5519 5518 5516 5515 5513 5512 5511 5510 5509 5509 5509 5509 5509 5510 5511 5513 5515 5516 5518 5519 5521 5523 5524 5525 5526 5527 5529 5530 5531 5532 5533 5534 5534 5535 5535 5535 5535 5535 5535 5536 5536 5537 5538 5539 5540 5540 5541 5542 5542 5542 5543 5543 5544 5544 5544 5544 5543
5550 5550 5549 5549 5548 5547 5547 5546 5545 5544 5544 5543 5542 5540 5539 5538 5536 5535 5533 5532 5530 5529 5527 5525 5524 5522 5521 5520 5518 5517 5516 5514 5513 5512 5511 5510 5509 5509 5509 5509 5509 5510 5511 5512 5514 5515 5516 5518 5520 5521 5522 5523 5525 5526 5527 5528 5529 5530 5531 5531 5531 5531 5532 5532 5532 5532 5533 5533 5534 5535 5536 5537 5537 5538 5538 5539 5539 5540 5540 5540 5541 5541 5541 5541 5541